| time (UTC) | temp F | wind direction | speed MPH | gust MPH | rain 1hr in | rain 24hr in | rain mn in | humidity % | barometer mb |
| 20260502190614 | 64 | 0 | 0.0 | 0.0 | 0.00 | 0.00 | 0.00 | 54 | 1008.7 |
| 20260502190004 | 65 | 0 | 0.0 | 0.0 | 0.00 | 0.00 | 0.00 | 53 | 1008.9 |
| 20260502185603 | 65 | 0 | 0.0 | 0.0 | 0.00 | 0.00 | 0.00 | 53 | 1008.9 |
| 20260502185417 | 65 | 0 | 0.0 | 0.0 | 0.00 | 0.00 | 0.00 | 52 | 1008.7 |
| 20260502184803 | 66 | 0 | 0.0 | 0.0 | 0.00 | 0.00 | 0.00 | 51 | 1008.6 |
| 20260502184403 | 66 | 0 | 0.0 | 0.0 | 0.00 | 0.00 | 0.00 | 51 | 1008.9 |
| 20260502184003 | 66 | 0 | 0.0 | 0.0 | 0.00 | 0.00 | 0.00 | 50 | 1008.8 |
| 20260502183603 | 67 | 180 | 0.0 | 2.0 | 0.00 | 0.00 | 0.00 | 49 | 1008.7 |
| 20260502183203 | 68 | 194 | 0.0 | 2.0 | 0.00 | 0.00 | 0.00 | 47 | 1008.6 |
| 20260502183013 | 68 | 194 | 0.0 | 2.0 | 0.00 | 0.00 | 0.00 | 47 | 1008.7 |
| 20260502182613 | 68 | 180 | 0.0 | 2.0 | 0.00 | 0.00 | 0.00 | 47 | 1008.5 |
| 20260502182003 | 69 | 161 | 0.0 | 2.0 | 0.00 | 0.00 | 0.00 | 45 | 1008.7 |
| 20260502181603 | 69 | 171 | 0.0 | 2.0 | 0.00 | 0.00 | 0.00 | 45 | 1008.6 |
| 20260502181203 | 69 | 172 | 0.0 | 2.0 | 0.00 | 0.00 | 0.00 | 45 | 1008.8 |
| 20260502180803 | 70 | 173 | 0.0 | 2.0 | 0.00 | 0.00 | 0.00 | 45 | 1008.9 |
| 20260502180615 | 70 | 170 | 1.0 | 2.0 | 0.00 | 0.00 | 0.00 | 44 | 1009.0 |
| 20260502180214 | 71 | 169 | 0.0 | 2.0 | 0.00 | 0.00 | 0.00 | 44 | 1008.5 |
| 20260502164004 | 76 | 201 | 2.0 | 4.0 | 0.00 | 0.00 | 0.00 | 37 | 1008.7 |
| 20260502163603 | 76 | 201 | 1.0 | 4.0 | 0.00 | 0.00 | 0.00 | 37 | 1008.6 |
| 20260502163203 | 76 | 174 | 1.0 | 4.0 | 0.00 | 0.00 | 0.00 | 37 | 1008.6 |
| 20260502163015 | 76 | 162 | 1.0 | 4.0 | 0.00 | 0.00 | 0.00 | 37 | 1008.9 |
| 20260502162403 | 76 | 164 | 2.0 | 8.0 | 0.00 | 0.00 | 0.00 | 36 | 1009.0 |
| 20260502162004 | 76 | 168 | 2.0 | 8.0 | 0.00 | 0.00 | 0.00 | 36 | 1008.9 |
| 20260502161603 | 77 | 187 | 4.0 | 9.0 | 0.00 | 0.00 | 0.00 | 36 | 1008.8 |
| 20260502161203 | 77 | 179 | 2.0 | 9.0 | 0.00 | 0.00 | 0.00 | 37 | 1008.8 |
| 20260502160803 | 77 | 143 | 6.0 | 9.0 | 0.00 | 0.00 | 0.00 | 35 | 1009.0 |
| 20260502160403 | 78 | 153 | 2.0 | 4.0 | 0.00 | 0.00 | 0.00 | 35 | 1008.9 |
| 20260502152003 | 78 | 201 | 2.0 | 8.0 | 0.00 | 0.00 | 0.00 | 35 | 1009.4 |
| 20260502151603 | 77 | 177 | 2.0 | 6.0 | 0.00 | 0.00 | 0.00 | 36 | 1009.5 |
| 20260502151203 | 79 | 170 | 2.0 | 6.0 | 0.00 | 0.00 | 0.00 | 35 | 1009.5 |
| 20260502150803 | 79 | 169 | 0.0 | 6.0 | 0.00 | 0.00 | 0.00 | 35 | 1009.3 |
| 20260502150403 | 79 | 164 | 2.0 | 8.0 | 0.00 | 0.00 | 0.00 | 34 | 1009.5 |
| 20260502150216 | 78 | 171 | 2.0 | 8.0 | 0.00 | 0.00 | 0.00 | 34 | 1009.3 |
| 20260502130613 | 77 | 167 | 1.0 | 7.0 | 0.00 | 0.00 | 0.00 | 37 | 1010.8 |
| 20260502123603 | 76 | 156 | 2.0 | 8.0 | 0.00 | 0.00 | 0.00 | 35 | 1011.2 |
| 20260502123413 | 76 | 169 | 4.0 | 8.0 | 0.00 | 0.00 | 0.00 | 35 | 1011.5 |
| 20260502122803 | 76 | 178 | 2.0 | 9.0 | 0.00 | 0.00 | 0.00 | 34 | 1011.4 |
| 20260502122617 | 76 | 185 | 2.0 | 9.0 | 0.00 | 0.00 | 0.00 | 35 | 1011.4 |
| 20260502122003 | 76 | 222 | 2.0 | 7.0 | 0.00 | 0.00 | 0.00 | 34 | 1011.4 |
| 20260502121603 | 76 | 207 | 3.0 | 7.0 | 0.00 | 0.00 | 0.00 | 35 | 1011.5 |
| 20260502121415 | 76 | 204 | 2.0 | 7.0 | 0.00 | 0.00 | 0.00 | 35 | 1011.7 |
| 20260502120803 | 78 | 228 | 2.0 | 8.0 | 0.00 | 0.00 | 0.00 | 35 | 1011.6 |
| 20260502120403 | 76 | 228 | 2.0 | 8.0 | 0.00 | 0.00 | 0.00 | 37 | 1011.6 |
| 20260502115817 | 76 | 218 | 4.0 | 6.0 | 0.00 | 0.00 | 0.00 | 36 | 1011.7 |
| 20260502115203 | 76 | 152 | 2.0 | 6.0 | 0.00 | 0.00 | 0.00 | 35 | 1011.7 |
| 20260502114803 | 75 | 172 | 1.0 | 7.0 | 0.00 | 0.00 | 0.00 | 37 | 1011.6 |
| 20260502114403 | 76 | 186 | 1.0 | 7.0 | 0.00 | 0.00 | 0.00 | 38 | 1012.0 |
| 20260502114003 | 77 | 163 | 4.0 | 7.0 | 0.00 | 0.00 | 0.00 | 34 | 1011.9 |
| 20260502113603 | 78 | 161 | 2.0 | 4.0 | 0.00 | 0.00 | 0.00 | 36 | 1011.9 |
| 20260502113413 | 76 | 182 | 1.0 | 6.0 | 0.00 | 0.00 | 0.00 | 36 | 1011.9 |
| 20260502112803 | 76 | 220 | 2.0 | 6.0 | 0.00 | 0.00 | 0.00 | 34 | 1011.9 |
| 20260502112403 | 77 | 205 | 2.0 | 6.0 | 0.00 | 0.00 | 0.00 | 34 | 1011.9 |
| 20260502112003 | 76 | 189 | 3.0 | 6.0 | 0.00 | 0.00 | 0.00 | 35 | 1012.1 |
| 20260502111603 | 76 | 131 | 1.0 | 4.0 | 0.00 | 0.00 | 0.00 | 36 | 1012.1 |
| 20260502111203 | 77 | 150 | 3.0 | 4.0 | 0.00 | 0.00 | 0.00 | 35 | 1012.1 |
| 20260502110804 | 77 | 177 | 1.0 | 7.0 | 0.00 | 0.00 | 0.00 | 36 | 1012.1 |
| 20260502110403 | 77 | 176 | 2.0 | 7.0 | 0.00 | 0.00 | 0.00 | 35 | 1012.3 |
| 20260502110213 | 77 | 174 | 1.0 | 7.0 | 0.00 | 0.00 | 0.00 | 36 | 1012.2 |
| 20260502105603 | 78 | 144 | 4.0 | 7.0 | 0.00 | 0.00 | 0.00 | 36 | 1012.2 |
| 20260502105417 | 77 | 152 | 1.0 | 4.0 | 0.00 | 0.00 | 0.00 | 38 | 1012.2 |
| 20260502104803 | 77 | 268 | 1.0 | 8.0 | 0.00 | 0.00 | 0.00 | 36 | 1012.4 |
| 20260502104403 | 74 | 258 | 1.0 | 8.0 | 0.00 | 0.00 | 0.00 | 37 | 1012.6 |
| 20260502104003 | 75 | 236 | 4.0 | 8.0 | 0.00 | 0.00 | 0.00 | 39 | 1012.4 |
| 20260502103603 | 76 | 221 | 1.0 | 7.0 | 0.00 | 0.00 | 0.00 | 36 | 1012.7 |
| 20260502103203 | 75 | 213 | 2.0 | 7.0 | 0.00 | 0.00 | 0.00 | 35 | 1012.7 |
| 20260502102803 | 75 | 191 | 2.0 | 7.0 | 0.00 | 0.00 | 0.00 | 36 | 1012.7 |
| 20260502102613 | 75 | 161 | 3.0 | 6.0 | 0.00 | 0.00 | 0.00 | 36 | 1012.7 |
| 20260502102217 | 74 | 152 | 2.0 | 6.0 | 0.00 | 0.00 | 0.00 | 36 | 1012.9 |
| 20260502101603 | 74 | 187 | 0.0 | 6.0 | 0.00 | 0.00 | 0.00 | 36 | 1013.0 |
| 20260502101203 | 75 | 163 | 2.0 | 4.0 | 0.00 | 0.00 | 0.00 | 36 | 1013.0 |
| 20260502100803 | 75 | 171 | 3.0 | 6.0 | 0.00 | 0.00 | 0.00 | 35 | 1013.1 |
| 20260502100403 | 73 | 210 | 1.0 | 6.0 | 0.00 | 0.00 | 0.00 | 39 | 1013.0 |
| 20260502091203 | 73 | 321 | 0.0 | 2.0 | 0.00 | 0.00 | 0.00 | 39 | 1010.2 |
| 20260502090803 | 72 | 276 | 0.0 | 4.0 | 0.00 | 0.00 | 0.00 | 40 | 1010.1 |
| 20260502090403 | 71 | 247 | 0.0 | 4.0 | 0.00 | 0.00 | 0.00 | 39 | 1010.2 |
| 20260502071208 | 64 | 16 | 2.0 | 4.0 | 0.00 | 0.00 | 0.00 | 49 | 1010.8 |
| 20260502070803 | 64 | 14 | 2.0 | 4.0 | 0.00 | 0.00 | 0.00 | 50 | 1010.8 |
| 20260502070403 | 64 | 339 | 0.0 | 4.0 | 0.00 | 0.00 | 0.00 | 50 | 1010.8 |
| 20260502070003 | 64 | 282 | 2.0 | 2.0 | 0.00 | 0.00 | 0.00 | 51 | 1010.7 |
| 20260502065603 | 63 | 278 | 0.0 | 4.0 | 0.00 | 0.00 | 0.00 | 53 | 1010.8 |
| 20260502065203 | 63 | 280 | 1.0 | 4.0 | 0.00 | 0.00 | 0.00 | 54 | 1010.8 |
| 20260502064803 | 62 | 282 | 1.0 | 4.0 | 0.00 | 0.00 | 0.00 | 56 | 1010.8 |
| 20260502064404 | 61 | 281 | 2.0 | 4.0 | 0.00 | 0.00 | 0.00 | 57 | 1010.8 |
| 20260502064004 | 62 | 268 | 0.0 | 4.0 | 0.00 | 0.00 | 0.00 | 55 | 1010.8 |
| 20260502063603 | 61 | 270 | 0.0 | 4.0 | 0.00 | 0.00 | 0.00 | 56 | 1010.8 |
| 20260502063203 | 60 | 269 | 0.0 | 4.0 | 0.00 | 0.00 | 0.00 | 58 | 1010.9 |
| 20260502063017 | 60 | 281 | 2.0 | 4.0 | 0.00 | 0.00 | 0.00 | 58 | 1010.8 |
| 20260502062403 | 60 | 299 | 1.0 | 4.0 | 0.00 | 0.00 | 0.00 | 57 | 1010.9 |
| 20260502062003 | 59 | 294 | 0.0 | 4.0 | 0.00 | 0.00 | 0.00 | 59 | 1011.0 |
| 20260502061603 | 58 | 294 | 0.0 | 4.0 | 0.00 | 0.00 | 0.00 | 59 | 1010.9 |
| 20260502061203 | 59 | 297 | 2.0 | 4.0 | 0.00 | 0.00 | 0.00 | 59 | 1010.8 |
| 20260502060803 | 59 | 337 | 0.0 | 2.0 | 0.00 | 0.00 | 0.00 | 61 | 1011.0 |
| 20260502060613 | 58 | 330 | 0.0 | 2.0 | 0.00 | 0.00 | 0.00 | 60 | 1011.1 |
| 20260502060003 | 57 | 307 | 1.0 | 2.0 | 0.00 | 0.00 | 0.00 | 60 | 1010.8 |
| 20260502055603 | 57 | 291 | 0.0 | 2.0 | 0.00 | 0.00 | 0.00 | 62 | 1011.3 |
| 20260502055416 | 56 | 283 | 1.0 | 2.0 | 0.00 | 0.00 | 0.00 | 62 | 1010.9 |
| 20260502054803 | 55 | 270 | 2.0 | 2.0 | 0.00 | 0.00 | 0.00 | 64 | 1011.2 |
| 20260502054403 | 54 | 270 | 1.0 | 2.0 | 0.00 | 0.00 | 0.00 | 68 | 1011.0 |
| 20260502054003 | 53 | 270 | 1.0 | 2.0 | 0.00 | 0.00 | 0.00 | 73 | 1010.9 |
| 20260502053603 | 53 | 270 | 1.0 | 2.0 | 0.00 | 0.00 | 0.00 | 74 | 1011.0 |
| 20260502053203 | 53 | 270 | 0.0 | 2.0 | 0.00 | 0.00 | 0.00 | 74 | 1011.2 |
| 20260502053013 | 53 | 270 | 1.0 | 2.0 | 0.00 | 0.00 | 0.00 | 73 | 1011.0 |
| 20260502052403 | 52 | 270 | 0.0 | 2.0 | 0.00 | 0.00 | 0.00 | 75 | 1010.9 |
| 20260502052003 | 51 | 270 | 1.0 | 2.0 | 0.00 | 0.00 | 0.00 | 77 | 1010.9 |
| 20260502051603 | 51 | 270 | 0.0 | 2.0 | 0.00 | 0.00 | 0.00 | 79 | 1011.0 |
| 20260502051203 | 50 | 270 | 0.0 | 2.0 | 0.00 | 0.00 | 0.00 | 79 | 1011.0 |
| 20260502050803 | 49 | 0 | 0.0 | 0.0 | 0.00 | 0.00 | 0.00 | 79 | 1010.9 |
| 20260502050403 | 49 | 0 | 0.0 | 0.0 | 0.00 | 0.00 | 0.00 | 79 | 1010.8 |
| 20260502050004 | 49 | 0 | 0.0 | 0.0 | 0.00 | 0.00 | 0.00 | 80 | 1010.9 |
| 20260502045603 | 48 | 0 | 0.0 | 0.0 | 0.00 | 0.00 | 0.00 | 79 | 1011.0 |
| 20260502045203 | 48 | 0 | 0.0 | 0.0 | 0.00 | 0.00 | 0.00 | 80 | 1010.9 |
| 20260502044803 | 47 | 0 | 0.0 | 0.0 | 0.00 | 0.00 | 0.00 | 81 | 1010.9 |
| 20260502044403 | 47 | 0 | 0.0 | 0.0 | 0.00 | 0.00 | 0.00 | 82 | 1010.7 |
| 20260502044003 | 46 | 0 | 0.0 | 0.0 | 0.00 | 0.00 | 0.00 | 82 | 1010.9 |
| 20260502043603 | 46 | 0 | 0.0 | 0.0 | 0.00 | 0.00 | 0.00 | 82 | 1010.8 |
| 20260502043414 | 46 | 0 | 0.0 | 0.0 | 0.00 | 0.00 | 0.00 | 82 | 1010.9 |
| 20260502042803 | 46 | 0 | 0.0 | 0.0 | 0.00 | 0.00 | 0.00 | 83 | 1010.6 |
| 20260502042403 | 45 | 0 | 0.0 | 0.0 | 0.00 | 0.00 | 0.00 | 86 | 1010.8 |
| 20260502042003 | 45 | 0 | 0.0 | 0.0 | 0.00 | 0.00 | 0.00 | 86 | 1010.8 |
| 20260502041816 | 45 | 0 | 0.0 | 0.0 | 0.00 | 0.00 | 0.00 | 85 | 1010.6 |
| 20260502041203 | 45 | 0 | 0.0 | 0.0 | 0.00 | 0.00 | 0.00 | 86 | 1011.0 |
| 20260502040803 | 45 | 0 | 0.0 | 0.0 | 0.00 | 0.00 | 0.00 | 86 | 1010.9 |
| 20260502040403 | 44 | 0 | 0.0 | 0.0 | 0.00 | 0.00 | 0.00 | 87 | 1010.9 |
| 20260502040004 | 44 | 0 | 0.0 | 0.0 | 0.00 | 0.00 | 0.00 | 87 | 1010.8 |
| 20260502035603 | 44 | 0 | 0.0 | 0.0 | 0.00 | 0.00 | 0.00 | 86 | 1010.7 |
| 20260502035204 | 44 | 0 | 0.0 | 0.0 | 0.00 | 0.00 | 0.00 | 86 | 1010.8 |
| 20260502034803 | 45 | 0 | 0.0 | 0.0 | 0.00 | 0.00 | 0.00 | 85 | 1010.8 |
| 20260502034403 | 45 | 0 | 0.0 | 0.0 | 0.00 | 0.00 | 0.00 | 85 | 1010.8 |
| 20260502034003 | 45 | 0 | 0.0 | 0.0 | 0.00 | 0.00 | 0.00 | 85 | 1010.9 |
| 20260502033603 | 45 | 0 | 0.0 | 0.0 | 0.00 | 0.00 | 0.00 | 84 | 1010.8 |
| 20260502033203 | 45 | 0 | 0.0 | 0.0 | 0.00 | 0.00 | 0.00 | 84 | 1010.8 |
| 20260502032803 | 45 | 0 | 0.0 | 0.0 | 0.00 | 0.00 | 0.00 | 84 | 1010.9 |
| 20260502032403 | 46 | 0 | 0.0 | 0.0 | 0.00 | 0.00 | 0.00 | 83 | 1010.6 |
| 20260502032004 | 46 | 0 | 0.0 | 0.0 | 0.00 | 0.00 | 0.00 | 83 | 1010.9 |
| 20260502031817 | 46 | 0 | 0.0 | 0.0 | 0.00 | 0.00 | 0.00 | 83 | 1010.6 |
| 20260502031203 | 46 | 0 | 0.0 | 0.0 | 0.00 | 0.00 | 0.00 | 81 | 1010.8 |
| 20260502030803 | 47 | 0 | 0.0 | 0.0 | 0.00 | 0.00 | 0.00 | 80 | 1010.8 |
| 20260502030403 | 47 | 0 | 0.0 | 0.0 | 0.00 | 0.00 | 0.00 | 80 | 1010.9 |
| 20260502030003 | 46 | 0 | 0.0 | 0.0 | 0.00 | 0.00 | 0.00 | 81 | 1010.9 |
| 20260502025603 | 46 | 0 | 0.0 | 0.0 | 0.00 | 0.00 | 0.00 | 81 | 1011.0 |
| 20260502025203 | 47 | 0 | 0.0 | 0.0 | 0.00 | 0.00 | 0.00 | 81 | 1010.9 |
| 20260502024803 | 46 | 0 | 0.0 | 0.0 | 0.00 | 0.00 | 0.00 | 81 | 1010.8 |
| 20260502024617 | 46 | 0 | 0.0 | 0.0 | 0.00 | 0.00 | 0.00 | 82 | 1011.1 |
| 20260502024003 | 45 | 0 | 0.0 | 0.0 | 0.00 | 0.00 | 0.00 | 83 | 1011.0 |
| 20260502023603 | 45 | 0 | 0.0 | 0.0 | 0.00 | 0.00 | 0.00 | 83 | 1010.8 |
| 20260502023203 | 46 | 0 | 0.0 | 0.0 | 0.00 | 0.00 | 0.00 | 82 | 1011.1 |
| 20260502022803 | 46 | 0 | 0.0 | 0.0 | 0.00 | 0.00 | 0.00 | 81 | 1010.9 |
| 20260502022403 | 46 | 0 | 0.0 | 0.0 | 0.00 | 0.00 | 0.00 | 81 | 1011.0 |
| 20260502022003 | 46 | 0 | 0.0 | 0.0 | 0.00 | 0.00 | 0.00 | 81 | 1011.1 |
| 20260502021604 | 46 | 0 | 0.0 | 0.0 | 0.00 | 0.00 | 0.00 | 81 | 1011.0 |
| 20260502021203 | 46 | 0 | 0.0 | 0.0 | 0.00 | 0.00 | 0.00 | 81 | 1011.0 |
| 20260502021016 | 46 | 0 | 0.0 | 0.0 | 0.00 | 0.00 | 0.00 | 81 | 1011.1 |
| 20260502020403 | 46 | 0 | 0.0 | 0.0 | 0.00 | 0.00 | 0.00 | 82 | 1011.1 |
| 20260502020003 | 46 | 0 | 0.0 | 0.0 | 0.00 | 0.00 | 0.00 | 82 | 1011.0 |
| 20260502015604 | 46 | 0 | 0.0 | 0.0 | 0.00 | 0.00 | 0.00 | 81 | 1011.0 |
| 20260502015203 | 47 | 0 | 0.0 | 0.0 | 0.00 | 0.00 | 0.00 | 80 | 1010.9 |
| 20260502014803 | 47 | 0 | 0.0 | 0.0 | 0.00 | 0.00 | 0.00 | 79 | 1011.0 |
| 20260502014403 | 47 | 0 | 0.0 | 0.0 | 0.00 | 0.00 | 0.00 | 80 | 1011.0 |
| 20260502014003 | 47 | 270 | 0.0 | 2.0 | 0.00 | 0.00 | 0.00 | 79 | 1010.9 |
| 20260502013603 | 47 | 270 | 0.0 | 2.0 | 0.00 | 0.00 | 0.00 | 78 | 1010.9 |
| 20260502013416 | 47 | 270 | 0.0 | 2.0 | 0.00 | 0.00 | 0.00 | 78 | 1010.9 |
| 20260502012803 | 47 | 0 | 0.0 | 0.0 | 0.00 | 0.00 | 0.00 | 79 | 1010.8 |
| 20260502012403 | 47 | 0 | 0.0 | 0.0 | 0.00 | 0.00 | 0.00 | 79 | 1010.9 |
| 20260502012003 | 47 | 0 | 0.0 | 0.0 | 0.00 | 0.00 | 0.00 | 78 | 1010.9 |
| 20260502011603 | 47 | 0 | 0.0 | 0.0 | 0.00 | 0.00 | 0.00 | 78 | 1011.0 |
| 20260502011204 | 47 | 0 | 0.0 | 0.0 | 0.00 | 0.00 | 0.00 | 78 | 1011.0 |
| 20260502010803 | 47 | 0 | 0.0 | 0.0 | 0.00 | 0.00 | 0.00 | 77 | 1011.0 |
| 20260502010403 | 47 | 0 | 0.0 | 0.0 | 0.00 | 0.00 | 0.00 | 76 | 1010.9 |
| 20260502010004 | 48 | 0 | 0.0 | 0.0 | 0.00 | 0.00 | 0.00 | 76 | 1011.2 |
| 20260502005815 | 48 | 0 | 0.0 | 0.0 | 0.00 | 0.00 | 0.00 | 76 | 1011.1 |
| 20260502005416 | 48 | 0 | 0.0 | 0.0 | 0.00 | 0.00 | 0.00 | 75 | 1010.9 |
| 20260502005014 | 49 | 0 | 0.0 | 0.0 | 0.00 | 0.00 | 0.00 | 75 | 1011.1 |
| 20260502004613 | 49 | 0 | 0.0 | 0.0 | 0.00 | 0.00 | 0.00 | 74 | 1011.0 |
| 20260502004004 | 48 | 0 | 0.0 | 0.0 | 0.00 | 0.00 | 0.00 | 74 | 1011.0 |
| 20260502003603 | 49 | 0 | 0.0 | 0.0 | 0.00 | 0.00 | 0.00 | 73 | 1010.9 |
| 20260502003416 | 49 | 0 | 0.0 | 0.0 | 0.00 | 0.00 | 0.00 | 72 | 1011.2 |
| 20260502002803 | 49 | 0 | 0.0 | 0.0 | 0.00 | 0.00 | 0.00 | 72 | 1011.1 |
| 20260502002403 | 49 | 0 | 0.0 | 0.0 | 0.00 | 0.00 | 0.00 | 70 | 1011.2 |
| 20260502002003 | 49 | 0 | 0.0 | 0.0 | 0.00 | 0.00 | 0.00 | 71 | 1011.3 |
| 20260502001603 | 50 | 0 | 0.0 | 0.0 | 0.00 | 0.00 | 0.00 | 70 | 1011.2 |
| 20260502001203 | 51 | 0 | 0.0 | 0.0 | 0.00 | 0.00 | 0.00 | 70 | 1011.2 |
| 20260502000804 | 51 | 0 | 0.0 | 0.0 | 0.00 | 0.00 | 0.00 | 67 | 1011.2 |
| 20260502000403 | 51 | 0 | 0.0 | 0.0 | 0.00 | 0.00 | 0.00 | 69 | 1011.4 |
| 20260502000004 | 51 | 270 | 0.0 | 2.0 | 0.00 | 0.00 | 0.00 | 69 | 1011.5 |
| 20260501235603 | 51 | 263 | 0.0 | 2.0 | 0.00 | 0.00 | 0.00 | 68 | 1011.2 |
| 20260501235203 | 51 | 260 | 0.0 | 2.0 | 0.00 | 0.00 | 0.00 | 67 | 1011.1 |
| 20260501234803 | 51 | 255 | 0.0 | 2.0 | 0.00 | 0.00 | 0.00 | 67 | 1011.3 |
| 20260501234403 | 49 | 0 | 0.0 | 0.0 | 0.00 | 0.00 | 0.00 | 70 | 1011.1 |
| 20260501234003 | 49 | 0 | 0.0 | 0.0 | 0.00 | 0.00 | 0.00 | 72 | 1011.3 |
| 20260501233603 | 49 | 0 | 0.0 | 0.0 | 0.00 | 0.00 | 0.00 | 72 | 1011.1 |
| 20260501233203 | 49 | 0 | 0.0 | 0.0 | 0.00 | 0.00 | 0.00 | 72 | 1011.2 |
| 20260501232803 | 48 | 0 | 0.0 | 0.0 | 0.00 | 0.00 | 0.00 | 73 | 1011.2 |
| 20260501232616 | 49 | 0 | 0.0 | 0.0 | 0.00 | 0.00 | 0.00 | 73 | 1011.1 |
| 20260501232003 | 49 | 0 | 0.0 | 0.0 | 0.00 | 0.00 | 0.00 | 72 | 1011.2 |
| 20260501231603 | 49 | 0 | 0.0 | 0.0 | 0.00 | 0.00 | 0.00 | 71 | 1011.0 |
| 20260501231203 | 49 | 0 | 0.0 | 0.0 | 0.00 | 0.00 | 0.00 | 71 | 1011.0 |
| 20260501231013 | 49 | 0 | 0.0 | 0.0 | 0.00 | 0.00 | 0.00 | 72 | 1010.9 |
| 20260501230403 | 49 | 0 | 0.0 | 0.0 | 0.00 | 0.00 | 0.00 | 70 | 1010.8 |
| 20260501230004 | 50 | 0 | 0.0 | 0.0 | 0.00 | 0.00 | 0.00 | 70 | 1010.8 |
| 20260501225603 | 50 | 0 | 0.0 | 0.0 | 0.00 | 0.00 | 0.00 | 70 | 1011.1 |
| 20260501225203 | 50 | 0 | 0.0 | 0.0 | 0.00 | 0.00 | 0.00 | 69 | 1010.9 |
| 20260501224803 | 51 | 0 | 0.0 | 0.0 | 0.00 | 0.00 | 0.00 | 69 | 1010.9 |
| 20260501224404 | 50 | 0 | 0.0 | 0.0 | 0.00 | 0.00 | 0.00 | 69 | 1011.4 |
| 20260501224214 | 50 | 0 | 0.0 | 0.0 | 0.00 | 0.00 | 0.00 | 69 | 1011.1 |
| 20260501223813 | 50 | 0 | 0.0 | 0.0 | 0.00 | 0.00 | 0.00 | 69 | 1011.1 |
| 20260501223203 | 50 | 0 | 0.0 | 0.0 | 0.00 | 0.00 | 0.00 | 69 | 1011.2 |
| 20260501222803 | 50 | 0 | 0.0 | 0.0 | 0.00 | 0.00 | 0.00 | 67 | 1011.1 |
| 20260501222403 | 50 | 0 | 0.0 | 0.0 | 0.00 | 0.00 | 0.00 | 68 | 1011.2 |
| 20260501222003 | 50 | 0 | 0.0 | 0.0 | 0.00 | 0.00 | 0.00 | 68 | 1011.0 |
| 20260501221815 | 51 | 0 | 0.0 | 0.0 | 0.00 | 0.00 | 0.00 | 68 | 1011.0 |
| 20260501221203 | 51 | 0 | 0.0 | 0.0 | 0.00 | 0.00 | 0.00 | 66 | 1011.1 |
| 20260501220803 | 51 | 0 | 0.0 | 0.0 | 0.00 | 0.00 | 0.00 | 66 | 1011.1 |
| 20260501220403 | 51 | 0 | 0.0 | 0.0 | 0.00 | 0.00 | 0.00 | 67 | 1011.1 |
| 20260501220007 | 51 | 0 | 0.0 | 0.0 | 0.00 | 0.00 | 0.00 | 65 | 1011.0 |
| 20260501215603 | 51 | 0 | 0.0 | 0.0 | 0.00 | 0.00 | 0.00 | 66 | 1010.9 |
| 20260501215204 | 51 | 0 | 0.0 | 0.0 | 0.00 | 0.00 | 0.00 | 67 | 1010.9 |
| 20260501214804 | 51 | 0 | 0.0 | 0.0 | 0.00 | 0.00 | 0.00 | 65 | 1010.9 |
| 20260501214403 | 51 | 0 | 0.0 | 0.0 | 0.00 | 0.00 | 0.00 | 64 | 1010.9 |
| 20260501214003 | 51 | 0 | 0.0 | 0.0 | 0.00 | 0.00 | 0.00 | 64 | 1010.9 |
| 20260501213603 | 51 | 0 | 0.0 | 0.0 | 0.00 | 0.00 | 0.00 | 65 | 1010.8 |
| 20260501213203 | 52 | 0 | 0.0 | 0.0 | 0.00 | 0.00 | 0.00 | 65 | 1010.9 |
| 20260501212803 | 52 | 0 | 0.0 | 0.0 | 0.00 | 0.00 | 0.00 | 64 | 1010.8 |
| 20260501212403 | 53 | 0 | 0.0 | 0.0 | 0.00 | 0.00 | 0.00 | 64 | 1010.7 |
| 20260501212216 | 53 | 0 | 0.0 | 0.0 | 0.00 | 0.00 | 0.00 | 63 | 1010.8 |
| 20260501211603 | 53 | 0 | 0.0 | 0.0 | 0.00 | 0.00 | 0.00 | 60 | 1010.9 |
| 20260501211203 | 53 | 0 | 0.0 | 0.0 | 0.00 | 0.00 | 0.00 | 61 | 1010.5 |
| 20260501210803 | 53 | 0 | 0.0 | 0.0 | 0.00 | 0.00 | 0.00 | 63 | 1010.8 |
| 20260501210403 | 53 | 0 | 0.0 | 0.0 | 0.00 | 0.00 | 0.00 | 59 | 1010.6 |
| 20260501210213 | 53 | 0 | 0.0 | 0.0 | 0.00 | 0.00 | 0.00 | 59 | 1010.5 |
| 20260501205603 | 53 | 0 | 0.0 | 0.0 | 0.00 | 0.00 | 0.00 | 59 | 1010.6 |
| 20260501205203 | 52 | 0 | 0.0 | 0.0 | 0.00 | 0.00 | 0.00 | 61 | 1010.7 |
| 20260501204804 | 53 | 0 | 0.0 | 0.0 | 0.00 | 0.00 | 0.00 | 62 | 1010.6 |
| 20260501204616 | 53 | 0 | 0.0 | 0.0 | 0.00 | 0.00 | 0.00 | 64 | 1010.5 |
| 20260501204004 | 53 | 0 | 0.0 | 0.0 | 0.00 | 0.00 | 0.00 | 59 | 1010.6 |
| 20260501203814 | 53 | 0 | 0.0 | 0.0 | 0.00 | 0.00 | 0.00 | 58 | 1010.7 |
| 20260501203203 | 54 | 0 | 0.0 | 0.0 | 0.00 | 0.00 | 0.00 | 56 | 1010.5 |
| 20260501203013 | 54 | 0 | 0.0 | 0.0 | 0.00 | 0.00 | 0.00 | 56 | 1010.4 |
| 20260501202403 | 54 | 0 | 0.0 | 0.0 | 0.00 | 0.00 | 0.00 | 56 | 1010.4 |
| 20260501202003 | 53 | 0 | 0.0 | 0.0 | 0.00 | 0.00 | 0.00 | 59 | 1010.6 |
| 20260501201816 | 53 | 0 | 0.0 | 0.0 | 0.00 | 0.00 | 0.00 | 57 | 1010.3 |
| 20260501201416 | 54 | 0 | 0.0 | 0.0 | 0.00 | 0.00 | 0.00 | 56 | 1010.5 |
| 20260501200803 | 55 | 0 | 0.0 | 0.0 | 0.00 | 0.00 | 0.00 | 55 | 1010.2 |
| 20260501200403 | 55 | 0 | 0.0 | 0.0 | 0.00 | 0.00 | 0.00 | 54 | 1010.4 |
| 20260501200003 | 56 | 0 | 0.0 | 0.0 | 0.00 | 0.00 | 0.00 | 53 | 1010.3 |
| 20260501195604 | 56 | 0 | 0.0 | 0.0 | 0.00 | 0.00 | 0.00 | 51 | 1010.3 |
| 20260501195203 | 55 | 0 | 0.0 | 0.0 | 0.00 | 0.00 | 0.00 | 55 | 1010.3 |
| 20260501194803 | 55 | 0 | 0.0 | 0.0 | 0.00 | 0.00 | 0.00 | 55 | 1010.3 |
| 20260501194403 | 55 | 0 | 0.0 | 0.0 | 0.00 | 0.00 | 0.00 | 53 | 1010.4 |
| 20260501194216 | 56 | 0 | 0.0 | 0.0 | 0.00 | 0.00 | 0.00 | 53 | 1010.3 |
| 20260501193604 | 56 | 0 | 0.0 | 0.0 | 0.00 | 0.00 | 0.00 | 51 | 1010.2 |
| 20260501193203 | 56 | 0 | 0.0 | 0.0 | 0.00 | 0.00 | 0.00 | 53 | 1010.2 |
| 20260501192803 | 56 | 0 | 0.0 | 0.0 | 0.00 | 0.00 | 0.00 | 53 | 1010.2 |
| 20260501192403 | 57 | 0 | 0.0 | 0.0 | 0.00 | 0.00 | 0.00 | 50 | 1010.1 |
| 20260501192003 | 57 | 0 | 0.0 | 0.0 | 0.00 | 0.00 | 0.00 | 50 | 1010.2 |
| 20260501191603 | 57 | 0 | 0.0 | 0.0 | 0.00 | 0.00 | 0.00 | 48 | 1010.1 |
| 20260501191416 | 57 | 0 | 0.0 | 0.0 | 0.00 | 0.00 | 0.00 | 50 | 1010.2 |
| 20260501190803 | 58 | 0 | 0.0 | 0.0 | 0.00 | 0.00 | 0.00 | 48 | 1009.9 |